Location: Fredericksburg
(30.2750°N, 98.8720°W)
Time: 01:50:34
(UTC-06:00)

ISS - All Passes

Search period start: 30 January 2015 00:00
Search period end: 09 February 2015 00:00
Orbit: 401 x 408 km, 51.6° (Epoch: 29 January)

Date Brightness Start Highest point End Pass type
(mag) Time Alt. Az. Time Alt. Az. Time Alt. Az.
30 Jan - 05:10:15 10° NNW 05:13:26 46° NE 05:16:37 10° ESE visible
30 Jan - 20:10:10 10° S 20:12:44 22° SE 20:15:21 10° ENE visible
30 Jan - 21:46:29 10° W 21:49:09 22° NW 21:51:48 10° NNE night (unlit)
31 Jan - 04:18:24 10° NNW 04:21:04 23° NE 04:23:46 10° E night (unlit)
31 Jan - 05:54:51 10° WNW 05:57:31 22° SW 06:00:06 10° S visible
31 Jan - 20:53:37 10° WSW 20:56:46 46° NW 20:59:56 10° NNE visible
01 Feb - 03:27:04 10° N 03:28:35 13° NNE 03:30:11 10° ENE night (unlit)
01 Feb - 05:02:06 10° NW 05:05:19 52° SW 05:08:30 10° SSE visible
01 Feb - 20:01:15 10° SW 20:04:28 72° SE 20:07:44 10° NE visible
01 Feb - 21:40:44 10° NW 21:41:20 10° NNW 21:41:50 10° NNW night (unlit)
02 Feb - 04:09:47 10° NW 04:13:03 63° NE 04:16:18 10° SE night (unlit)
02 Feb - 19:09:24 10° S 19:12:14 29° SE 19:15:08 10° ENE visible
02 Feb - 20:46:24 10° W 20:48:46 18° NW 20:51:06 10° N visible
03 Feb - 03:17:45 10° NNW 03:20:39 28° NE 03:23:34 10° ESE night (unlit)
03 Feb - 04:54:44 10° W 04:56:59 17° SW 04:59:09 10° S night (unlit)
03 Feb - 18:18:29 10° SSE 18:20:02 13° SE 18:21:43 10° E daylight
03 Feb - 19:53:16 10° WSW 19:56:17 35° NW 19:59:19 10° NNE visible
04 Feb - 02:26:07 10° N 02:28:08 15° NE 02:30:13 10° ENE night (unlit)
04 Feb - 04:01:40 10° WNW 04:04:45 38° SW 04:07:48 10° SSE night (unlit)
04 Feb - 19:00:39 10° SW 19:03:53 83° NW 19:07:10 10° NE visible
05 Feb - 03:09:09 10° NW 03:12:27 86° NE 03:15:43 10° SE night (unlit)
05 Feb - 18:08:32 10° SSW 18:11:34 39° SE 18:14:38 10° ENE daylight
05 Feb - 19:46:12 10° WNW 19:48:12 15° NW 19:50:08 10° N visible
06 Feb - 02:16:58 10° NNW 02:20:01 36° NE 02:23:06 10° ESE night (unlit)
06 Feb - 03:54:38 10° W 03:56:16 13° SW 03:57:47 10° SSW night (unlit)
06 Feb - 17:17:07 10° S 17:19:17 17° SE 17:21:33 10° E daylight
06 Feb - 18:52:46 10° WSW 18:55:37 27° NW 18:58:28 10° NNE visible
07 Feb - 01:25:05 10° N 01:27:28 19° NE 01:29:55 10° E night (unlit)
07 Feb - 03:01:06 10° WNW 03:03:59 28° SW 03:06:50 10° S night (unlit)
07 Feb - 17:59:55 10° SW 18:03:07 61° NW 18:06:21 10° NE daylight
08 Feb - 00:34:06 10° NNE 00:34:48 11° NNE 00:35:36 10° NE night (unlit)
08 Feb - 02:08:22 10° NW 02:11:38 70° SW 02:14:53 10° SE night (unlit)
08 Feb - 17:07:34 10° SSW 17:10:43 53° SE 17:13:54 10° NE daylight
08 Feb - 18:45:58 10° WNW 18:47:27 12° NNW 18:48:50 10° N visible
